Location: Antoign�
(47.0844°N, 0.1131°W)
Time: 03:33:25
(UTC+00:00)

H-2A R/B - Pass Details

Date: 03 March 2021
Orbit: 732 x 837 km, 98.2° (Epoch: 16 April)

Event Time Altitude Azimuth Distance (km) Brightness Sun altitude
Rises 19:41:12 0° 199° (SSW) 3,366 5.4 -19.8°
Reaches altitude 10° 19:43:56 10° 211° (SSW) 2,443 4.8 -20.3°
Maximum altitude 19:48:26 26° 267° (W) 1,588 4.3 -21.0°
Drops below altitude 10° 19:52:59 10° 324° (NW) 2,457 5.3 -21.8°
Sets 19:55:44 0° 337° (NNW) 3,389 5.9 -22.2°
